Location: Culleoka
(33.1312°N, 96.4919°W)
Time: 15:15:20
(UTC+00:00)

H-2A R/B - Pass Details

Date: 08 July 2022
Orbit: 576 x 652 km, 98.5° (Epoch: 14 August)

Event Time Altitude Azimuth Distance (km) Brightness Sun altitude
Rises 02:51:41 0° 9° (N) 2,958 6.0 -13.7°
Reaches altitude 10° 02:53:54 10° 6° (N) 2,051 5.2 -14.0°
Maximum altitude 02:58:20 66° 285° (WNW) 709 2.5 -14.8°
Drops below altitude 10° 03:02:47 10° 203° (SSW) 2,049 4.5 -15.5°
Sets 03:05:00 0° 201° (SSW) 2,955 5.3 -15.8°
